Wind_Speed
86 90 88 87 81 79 78 81 84 86 81 80 78 80 83 84 80 78 78 77 74 73 68 73 74 72 74 71 60 62 61 60 58 55 51 52 50 49 47 45 49 58 67
98 94 91 88 85 82 83 82 90 92 84 82 82 83 82 85 81 80 76 82 80 79 79 76 77 76 74 76 67 63 62 61 65 59 56 54 50 49 49 49 45 52 61
107 105 106 99 92 94 91 93 92 87 91 89 84 82 76 80 81 84 83 84 83 80 81 76 77 74 70 72 69 66 63 65 64 65 59 54 54 57 52 53 49 45 51
83 84 85 89 92 86 81 81 84 84 87 82 76 77 79 80 78 73 74 77 79 77 76 74 72 71 71 75 73 71 64 66 68 65 63 60 59 55 59 52 55 51 50
93 89 88 84 81 77 73 85 89 89 93 89 81 84 85 86 79 78 79 81 78 81 79 76 78 74 73 77 74 71 67 65 68 68 67 67 65 64 58 59 55 57 54
97 92 91 88 87 86 86 89 94 96 93 91 90 87 83 78 75 74 74 76 78 80 76 79 78 76 72 73 73 71 68 67 68 70 67 68 70 69 66 63 62 58 59
99 96 92 90 86 86 89 99 100 96 95 94 85 81 81 79 72 71 71 74 76 77 76 78 80 81 78 73 73 72 72 73 71 72 70 71 70 69 71 65 66 66 64
97 96 95 92 89 89 88 89 91 88 85 84 80 79 83 76 72 68 69 70 69 71 73 74 75 74 73 73 74 73 76 76 73 73 73 72 71 71 71 71 70 70 73
96 96 96 95 92 90 89 91 91 89 86 84 83 80 83 75 74 71 70 70 68 69 69 75 77 77 77 76 75 76 77 73 74 74 76 76 75 75 75 75 74 72 72
94 95 94 92 91 90 90 88 87 87 86 83 84 82 81 77 78 76 73 73 73 72 72 71 75 78 78 77 76 77 77 76 77 78 79 77 75 78 78 78 77 77 79
90 92 93 91 90 88 87 88 87 86 85 84 85 83 81 79 81 79 77 76 76 74 74 73 75 78 79 79 79 77 79 78 79 78 80 78 78 80 79 81 83 82 82
87 88 89 88 87 87 86 85 85 86 86 86 87 87 85 85 83 81 78 76 76 77 76 76 78 79 80 81 81 79 76 77 78 79 80 80 80 82 84 86 87 88 89
80 82 82 85 87 87 87 87 87 86 86 86 86 85 84 84 83 82 83 82 81 80 78 77 78 79 80 80 80 81 80 78 80 82 84 85 85 86 87 90 90 91 93
75 72 73 77 80 84 86 86 86 85 84 83 83 82 82 82 82 82 82 80 79 77 76 75 75 77 78 79 81 83 85 85 86 86 85 88 89 90 92 94 96 98 100
71 68 69 72 73 76 78 79 80 80 80 79 79 79 80 80 80 79 77 76 74 74 73 73 74 75 77 79 82 85 87 88 88 90 92 92 93 95 98 100 102 103 104
72 69 66 67 71 72 73 74 74 75 76 76 75 75 74 74 74 73 72 72 73 74 75 77 80 81 80 80 80 83 85 86 87 89 90 93 95 97 98 100 102 103 105
74 69 72 66 65 68 69 69 70 70 69 69 70 69 69 68 68 68 69 70 71 74 75 76 77 77 78 79 80 85 86 87 89 90 92 94 96 99 101 103 104 107 110
76 71 71 66 63 63 65 65 65 66 66 67 68 68 68 67 67 68 69 70 71 71 73 75 77 79 80 82 82 85 87 89 90 93 96 99 101 102 105 108 110 113 115
78 74 71 69 66 64 63 63 63 64 66 68 68 68 68 68 68 67 68 70 71 73 74 74 75 76 78 80 82 87 89 90 92 94 95 97 100 103 107 109 114 118 122
77 73 71 68 67 68 67 65 64 64 65 65 67 67 67 68 69 70 72 71 72 74 75 75 76 77 78 79 79 82 86 87 90 93 98 101 104 106 107 108 111 114 116
79 75 70 69 71 71 66 64 63 64 66 66 67 68 69 70 70 71 71 72 73 74 75 75 77 78 79 81 83 85 89 90 92 95 98 101 102 103 106 109 113 115 117
82 78 75 71 68 64 65 67 67 66 66 66 67 67 67 68 69 71 72 73 74 75 77 78 79 81 83 85 88 91 92 94 97 99 102 105 108 110 112 114 117 119 121
88 83 78 76 72 69 66 66 67 68 69 69 69 69 68 68 70 71 73 75 76 77 79 81 83 85 88 91 94 96 99 101 103 104 107 108 110 113 116 118 120 123 126
89 88 82 78 76 76 72 67 67 67 68 68 68 70 71 73 75 76 77 78 80 81 84 86 87 90 91 92 93 95 97 99 103 106 110 113 116 118 122 126 128 131 133
91 91 89 83 79 75 72 70 68 67 66 66 67 68 69 70 72 74 76 78 79 82 84 85 86 87 90 92 95 98 102 107 111 115 118 121 125 128 129 128 125 122 120
94 92 91 89 84 80 75 72 71 69 68 68 68 68 69 69 70 72 74 76 78 80 84 86 88 92 95 99 103 107 111 115 119 122 124 124 122 118 116 113 112 110 109
Wind_Direction
244 243 244 247 250 247 254 257 256 259 262 262 258 261 258 260 263 264 268 267 267 266 267 266 269 271 271 269 261 264 267 269 269 273 281 270 270 267 271 276 268 259 254
244 240 247 248 249 249 254 254 257 259 258 257 256 258 256 260 261 266 264 267 265 264 270 269 269 270 267 264 259 260 265 267 265 270 276 274 270 270 267 273 273 267 258
247 248 246 248 247 247 248 249 255 256 255 256 256 257 254 255 261 262 265 266 265 264 267 266 266 265 262 259 257 254 259 264 264 267 273 264 268 274 272 269 271 272 265
246 248 247 248 250 250 250 251 246 246 250 253 250 253 260 259 260 260 258 260 259 259 262 262 259 258 259 262 260 253 257 261 261 264 267 268 267 274 270 268 267 271 270
246 248 248 247 244 247 240 240 243 247 251 247 248 257 259 261 259 259 256 256 255 258 262 258 261 260 260 260 258 256 260 259 262 261 263 269 270 268 271 269 269 268 267
246 247 245 246 245 241 231 234 246 253 257 256 255 258 256 255 254 255 253 255 255 256 257 259 257 256 255 256 257 257 258 260 261 263 264 267 266 267 267 271 269 266 267
243 244 244 244 242 237 239 240 244 248 252 257 256 251 251 254 253 254 255 255 257 256 258 255 256 256 253 256 257 261 261 261 261 262 262 266 266 268 266 269 270 266 264
244 243 242 242 240 240 241 240 241 245 246 252 252 252 252 258 253 254 257 257 258 257 254 254 255 256 256 258 261 263 264 262 262 262 262 263 264 267 267 267 268 268 267
241 242 243 243 241 240 241 240 241 243 244 248 247 251 250 254 254 257 257 260 260 259 259 256 256 258 258 260 260 263 264 261 261 264 264 264 262 266 267 267 266 268 268
239 239 240 241 241 241 242 242 243 246 245 249 248 249 253 252 253 257 257 260 261 260 258 257 257 259 258 259 261 261 260 260 262 263 262 263 263 266 265 264 263 266 267
241 240 240 241 242 242 242 243 243 243 244 245 248 248 252 252 252 256 257 260 261 260 258 256 256 257 257 257 258 259 260 261 261 261 262 262 264 266 264 265 266 266 265
241 240 241 241 241 241 241 241 242 244 244 245 247 248 249 250 252 254 256 258 259 259 259 258 255 255 257 258 258 259 259 260 260 261 264 264 265 267 268 267 267 267 268
241 242 241 240 241 240 240 241 242 243 244 246 247 248 250 251 252 253 253 253 255 256 256 257 257 257 257 257 259 259 260 261 261 262 263 265 266 266 266 268 267 267 268
243 241 241 241 240 240 240 242 243 244 245 246 248 248 249 250 251 252 253 255 255 254 255 255 256 259 259 260 261 262 262 263 263 263 262 263 264 266 267 267 267 267 267
241 241 239 239 239 239 239 240 240 241 243 244 246 247 248 249 250 251 253 253 253 252 255 256 257 258 259 261 261 263 264 265 265 265 266 265 265 265 265 266 267 268 268
239 240 238 236 236 236 236 237 238 240 242 243 245 246 248 249 249 250 250 251 251 252 255 258 261 262 262 262 262 262 263 263 263 265 266 266 266 266 267 267 268 269 269
236 237 239 233 234 233 233 234 236 238 240 242 244 246 247 248 248 249 251 252 253 255 259 261 261 262 262 263 263 264 264 264 264 264 265 266 266 267 268 268 269 269 270
236 234 239 237 234 235 234 234 236 239 240 242 244 245 246 247 248 249 252 254 255 256 257 259 260 261 262 263 264 264 265 265 266 267 267 268 269 270 270 270 271 271 272
231 233 235 235 233 234 235 234 236 239 241 243 244 245 246 248 250 251 252 255 255 258 260 261 262 262 263 264 264 265 265 266 267 268 269 269 270 271 272 272 272 273 273
228 229 232 236 232 231 231 233 236 239 240 241 243 245 247 248 249 251 254 255 257 259 259 260 260 261 262 264 265 265 267 269 269 270 270 270 271 273 274 274 273 274 274
225 226 228 234 236 233 232 233 233 237 241 243 245 246 247 249 250 252 253 255 256 257 259 260 261 262 264 265 266 266 267 268 269 271 272 274 275 275 275 274 274 274 274
220 225 226 230 235 236 232 231 232 233 236 240 244 246 248 250 252 253 255 257 258 258 259 261 263 264 265 266 267 268 269 270 271 271 272 273 274 274 275 276 276 276 277
216 222 226 228 230 234 236 234 235 236 237 239 241 243 246 249 251 254 255 257 258 260 261 262 263 264 265 266 267 269 270 271 272 273 275 276 278 280 281 282 282 281 281
214 218 222 227 232 234 234 236 238 240 241 242 244 246 247 248 250 251 254 256 258 260 261 263 265 267 269 271 272 275 277 279 281 282 283 284 284 285 286 285 284 284 284
214 217 220 224 229 234 236 237 239 241 244 246 248 249 251 253 255 256 258 261 263 265 267 269 271 273 276 279 281 282 282 283 285 285 286 286 286 285 285 285 285 285 285
213 217 220 223 227 231 233 236 239 242 244 247 250 253 256 258 260 262 263 265 268 270 272 274 277 278 279 280 282 283 284 285 286 287 287 286 287 288 288 288 288 288 287
Height
10606 10615 10625 10631 10635 10640 10646 10639 10641 10635 10656 10661 10665 10664 10669 10671 10673 10675 10676 10677 10676 10680 10683 10683 10682 10681 10684 10685 10686 10691 10692 10692 10694 10694 10694 10695 10695 10694 10694 10693 10693 10692 10693
10587 10594 10605 10613 10619 10625 10630 10625 10622 10621 10634 10640 10646 10649 10652 10655 10654 10657 10658 10662 10661 10663 10666 10668 10666 10666 10665 10669 10671 10675 10679 10679 10681 10681 10680 10682 10683 10681 10682 10682 10680 10679 10679
10564 10575 10586 10593 10599 10608 10611 10607 10606 10605 10611 10622 10629 10633 10635 10636 10637 10641 10643 10645 10645 10646 10648 10650 10651 10651 10649 10653 10655 10659 10663 10665 10666 10667 10667 10667 10669 10670 10668 10669 10668 10666 10666
10542 10551 10560 10570 10577 10585 10591 10593 10590 10584 10588 10602 10610 10615 10615 10618 10618 10622 10626 10627 10630 10631 10630 10633 10635 10635 10634 10636 10639 10643 10647 10651 10652 10652 10653 10654 10655 10656 10656 10656 10655 10653 10652
10520 10530 10538 10548 10557 10566 10573 10574 10575 10571 10568 10582 10593 10598 10597 10600 10602 10606 10611 10611 10614 10616 10615 10618 10620 10620 10620 10621 10624 10627 10632 10635 10637 10636 10636 10638 10639 10640 10642 10642 10641 10640 10637
10495 10506 10520 10528 10535 10547 10553 10557 10556 10554 10555 10558 10572 10579 10580 10583 10584 10589 10593 10596 10597 10600 10600 10602 10603 10603 10603 10605 10607 10610 10615 10618 10621 10621 10621 10622 10622 10623 10626 10628 10627 10625 10623
10473 10484 10496 10503 10509 10518 10528 10535 10538 10540 10542 10543 10550 10557 10561 10565 10568 10574 10576 10581 10582 10583 10585 10586 10587 10586 10588 10589 10591 10594 10597 10599 10603 10606 10606 10606 10606 10606 10607 10610 10610 10609 10607
10448 10460 10470 10477 10486 10496 10505 10513 10519 10524 10527 10531 10534 10541 10544 10549 10552 10557 10560 10563 10566 10568 10569 10570 10570 10571 10572 10574 10575 10576 10579 10581 10583 10587 10589 10589 10588 10588 10589 10591 10594 10592 10590
10424 10434 10444 10453 10465 10474 10483 10490 10498 10503 10509 10514 10519 10523 10526 10531 10535 10541 10544 10546 10548 10551 10552 10553 10553 10554 10556 10556 10557 10559 10561 10563 10564 10566 10568 10570 10571 10571 10572 10573 10574 10574 10573
10401 10411 10419 10430 10442 10452 10461 10469 10475 10482 10488 10494 10500 10505 10508 10513 10517 10523 10526 10527 10530 10532 10533 10534 10535 10536 10538 10539 10540 10541 10542 10544 10545 10546 10547 10547 10549 10550 10552 10553 10554 10554 10554
10380 10390 10398 10409 10420 10430 10440 10448 10456 10463 10469 10476 10482 10486 10490 10494 10500 10504 10506 10509 10510 10512 10514 10515 10516 10517 10518 10519 10521 10523 10523 10524 10525 10525 10526 10526 10527 10529 10530 10531 10532 10532 10532
10355 10367 10379 10390 10401 10409 10418 10427 10435 10442 10449 10456 10461 10465 10469 10475 10480 10483 10486 10489 10490 10491 10492 10494 10497 10497 10498 10499 10502 10503 10504 10505 10505 10505 10506 10506 10507 10507 10507 10508 10508 10509 10508
10337 10350 10364 10374 10382 10390 10399 10407 10414 10421 10428 10434 10439 10445 10451 10455 10459 10462 10464 10467 10469 10470 10471 10473 10476 10477 10478 10480 10481 10483 10485 10485 10486 10486 10486 10486 10485 10485 10484 10484 10483 10483 10481
10321 10335 10348 10355 10364 10373 10381 10388 10395 10402 10409 10414 10420 10426 10430 10434 10438 10441 10444 10447 10450 10451 10453 10455 10457 10458 10460 10460 10461 10462 10463 10465 10465 10465 10464 10464 10463 10462 10460 10459 10458 10456 10455
10307 10317 10329 10338 10346 10354 10361 10368 10376 10384 10390 10396 10401 10406 10410 10414 10418 10421 10425 10427 10430 10433 10435 10437 10439 10440 10442 10442 10443 10442 10441 10441 10442 10442 10441 10440 10440 10437 10435 10433 10432 10430 10429
10289 10297 10309 10321 10328 10335 10344 10352 10360 10367 10373 10378 10383 10387 10391 10396 10399 10402 10405 10408 10412 10415 10417 10419 10420 10421 10422 10423 10423 10420 10421 10421 10420 10419 10418 10416 10414 10412 10409 10408 10406 10405 10402
10272 10282 10286 10300 10312 10320 10329 10337 10344 10350 10355 10360 10365 10369 10373 10377 10381 10384 10388 10392 10394 10397 10399 10400 10401 10402 10402 10402 10403 10399 10399 10399 10398 10397 10394 10391 10389 10387 10384 10382 10379 10375 10371
10255 10267 10272 10285 10296 10304 10312 10321 10328 10334 10339 10344 10348 10352 10357 10361 10365 10368 10371 10374 10377 10379 10379 10380 10380 10380 10381 10381 10382 10377 10375 10375 10374 10373 10370 10365 10364 10362 10356 10352 10349 10346 10341
10239 10248 10256 10266 10278 10287 10295 10304 10311 10317 10322 10327 10331 10336 10341 10345 10349 10352 10355 10357 10359 10360 10360 10359 10359 10359 10359 10359 10360 10355 10352 10351 10349 10347 10343 10342 10337 10332 10328 10326 10320 10313 10308
10220 10230 10239 10248 10259 10268 10277 10287 10294 10300 10305 10310 10315 10320 10326 10329 10332 10335 10337 10339 10341 10340 10340 10339 10339 10339 10339 10338 10339 10336 10331 10331 10325 10320 10317 10314 10310 10303 10297 10291 10285 10281 10276
10201 10213 10224 10231 10237 10251 10266 10274 10279 10284 10289 10295 10300 10303 10307 10311 10315 10317 10319 10320 10321 10321 10321 10321 10320 10319 10319 10318 10315 10315 10308 10307 10300 10295 10290 10285 10280 10273 10266 10261 10254 10247 10243
10185 10197 10208 10215 10223 10234 10245 10253 10260 10267 10273 10277 10281 10286 10291 10294 10297 10299 10301 10301 10301 10300 10300 10301 10300 10299 10296 10294 10291 10289 10286 10284 10276 10270 10265 10257 10249 10242 10234 10227 10219 10211 10204
10165 10179 10191 10200 10209 10217 10226 10235 10243 10248 10254 10260 10265 10269 10274 10277 10279 10280 10280 10281 10281 10281 10281 10280 10278 10276 10274 10272 10268 10265 10261 10256 10249 10242 10234 10225 10218 10209 10200 10192 10183 10172 10162
10148 10163 10175 10185 10194 10201 10211 10220 10226 10232 10238 10243 10248 10252 10255 10257 10259 10261 10262 10261 10261 10261 10259 10258 10255 10254 10251 10248 10244 10237 10232 10224 10215 10208 10201 10193 10184 10175 10165 10153 10141 10130 10121
10131 10145 10158 10169 10178 10188 10197 10204 10211 10217 10222 10227 10231 10233 10236 10239 10240 10242 10242 10241 10240 10239 10237 10235 10232 10230 10227 10222 10216 10210 10202 10196 10185 10177 10168 10159 10149 10138 10125 10113 10101 10089 10078
10114 10128 10142 10155 10164 10173 10181 10190 10196 10202 10207 10210 10214 10218 10220 10221 10222 10223 10223 10222 10220 10217 10215 10212 10210 10206 10201 10196 10189 10182 10174 10166 10156 10146 10135 10124 10112 10099 10086 10074 10061 10050 10039